Time,TemperatureF,DewpointF,PressureIn,WindDirection,WindDirectionDegrees,WindSpeedMPH,WindSpeedGustMPH,Humidity,HourlyPrecipIn,Conditions,Clouds,dailyrainin,SoftwareType,DateUTC
2013-07-18 00:12:00,77.0,76.0,-100.00,WNW,290,1.0,1.0,95,0.00,,,-99.99,,2013-07-18 04:12:00,
2013-07-18 00:22:00,77.0,76.0,-100.00,WSW,250,1.0,2.0,95,0.00,,,-99.99,,2013-07-18 04:22:00,
2013-07-18 00:32:00,77.0,76.0,-100.00,West,260,1.0,2.0,95,0.00,,,-99.99,,2013-07-18 04:32:00,
2013-07-18 00:43:00,77.0,76.0,-100.00,WNW,290,1.0,2.0,95,0.00,,,-99.99,,2013-07-18 04:43:00,
2013-07-18 01:02:00,77.0,75.0,-100.00,WNW,295,1.0,3.0,95,0.00,,,-99.99,,2013-07-18 05:02:00,
2013-07-18 02:01:00,76.0,75.0,-100.00,SW,215,1.0,2.0,95,0.00,,,-99.99,,2013-07-18 06:01:00,
2013-07-18 02:32:00,76.0,75.0,-100.00,North,350,0.0,1.0,95,0.00,,,-99.99,,2013-07-18 06:32:00,
2013-07-18 02:43:00,76.0,74.0,-100.00,SE,145,0.0,4.0,95,0.00,,,-99.99,,2013-07-18 06:43:00,
2013-07-18 02:52:00,76.0,74.0,-100.00,South,180,1.0,2.0,95,0.00,,,-99.99,,2013-07-18 06:52:00,
2013-07-18 03:01:00,76.0,74.0,-100.00,South,175,0.0,1.0,95,0.00,,,-99.99,,2013-07-18 07:01:00,
2013-07-18 03:12:00,75.0,74.0,-100.00,SW,215,1.0,2.0,95,0.00,,,-99.99,,2013-07-18 07:12:00,
2013-07-18 03:22:00,75.0,74.0,-100.00,SW,225,0.0,1.0,96,0.00,,,-99.99,,2013-07-18 07:22:00,
2013-07-18 03:32:00,76.0,74.0,-100.00,SE,135,0.0,2.0,96,0.00,,,-99.99,,2013-07-18 07:32:00,
2013-07-18 03:42:00,75.0,74.0,-100.00,SSW,195,1.0,2.0,96,0.00,,,-99.99,,2013-07-18 07:42:00,
2013-07-18 03:52:00,75.0,74.0,-100.00,SSW,210,1.0,3.0,95,0.00,,,-99.99,,2013-07-18 07:52:00,
2013-07-18 04:01:00,75.0,74.0,-100.00,SW,215,0.0,2.0,95,0.00,,,-99.99,,2013-07-18 08:01:00,
2013-07-18 04:11:00,75.0,74.0,-100.00,SSW,205,1.0,3.0,95,0.00,,,-99.99,,2013-07-18 08:11:00,
2013-07-18 04:21:00,75.0,73.0,-100.00,SSW,200,1.0,2.0,95,0.00,,,-99.99,,2013-07-18 08:21:00,
2013-07-18 04:32:00,75.0,73.0,-100.00,South,170,1.0,3.0,95,0.00,,,-99.99,,2013-07-18 08:32:00,
2013-07-18 04:42:00,75.0,74.0,-100.00,SSE,150,1.0,2.0,96,0.00,,,-99.99,,2013-07-18 08:42:00,
2013-07-18 04:51:00,75.0,74.0,-100.00,SSE,165,0.0,3.0,96,0.00,,,-99.99,,2013-07-18 08:51:00,
2013-07-18 05:01:00,75.0,73.0,-100.00,South,175,1.0,2.0,95,0.00,,,-99.99,,2013-07-18 09:01:00,
2013-07-18 05:11:00,75.0,73.0,-100.00,SE,130,1.0,3.0,95,0.00,,,-99.99,,2013-07-18 09:11:00,
2013-07-18 05:32:00,75.0,73.0,-100.00,South,185,0.0,3.0,95,0.00,,,-99.99,,2013-07-18 09:32:00,
2013-07-18 05:42:00,75.0,74.0,-100.00,West,280,1.0,2.0,95,0.00,,,-99.99,,2013-07-18 09:42:00,
2013-07-18 06:22:00,75.0,74.0,-100.00,NNW,335,1.0,3.0,96,0.00,,,-99.99,,2013-07-18 10:22:00,
2013-07-18 06:43:00,75.0,74.0,-100.00,NW,325,1.0,3.0,95,0.00,,,-99.99,,2013-07-18 10:43:00,
2013-07-18 07:01:00,75.0,74.0,-100.00,North,355,1.0,3.0,96,0.00,,,-99.99,,2013-07-18 11:01:00,
2013-07-18 07:11:00,75.0,74.0,-100.00,South,175,1.0,3.0,96,0.00,,,-99.99,,2013-07-18 11:11:00,
2013-07-18 07:43:00,75.0,74.0,-100.00,NNW,340,2.0,4.0,97,0.00,,,-99.99,,2013-07-18 11:43:00,
2013-07-18 08:11:00,76.0,75.0,-100.00,NW,305,2.0,4.0,96,0.00,,,-99.99,,2013-07-18 12:11:00,
2013-07-18 08:22:00,76.0,75.0,-100.00,North,355,2.0,4.0,96,0.00,,,-99.99,,2013-07-18 12:22:00,
2013-07-18 08:32:00,77.0,75.0,-100.00,NNW,335,1.0,5.0,94,0.00,,,-99.99,,2013-07-18 12:32:00,
2013-07-18 08:42:00,77.0,76.0,-100.00,NNW,340,2.0,6.0,95,0.00,,,-99.99,,2013-07-18 12:42:00,
2013-07-18 10:43:00,86.0,77.0,-100.00,SE,140,1.0,7.0,74,0.00,,,-99.99,,2013-07-18 14:43:00,
2013-07-18 11:01:00,87.0,76.0,-100.00,SE,145,1.0,4.0,70,0.00,,,-99.99,,2013-07-18 15:01:00,
2013-07-18 11:22:00,88.0,74.0,-100.00,ENE,75,1.0,6.0,64,0.00,,,-99.99,,2013-07-18 15:22:00,
2013-07-18 11:43:00,90.0,74.0,-100.00,NNW,340,1.0,4.0,58,0.00,,,-99.99,,2013-07-18 15:43:00,
2013-07-18 12:11:00,90.0,72.0,-100.00,WNW,300,1.0,4.0,56,0.00,,,-99.99,,2013-07-18 16:11:00,
2013-07-18 12:42:00,90.0,70.0,-100.00,South,170,2.0,6.0,52,0.00,,,-99.99,,2013-07-18 16:42:00,
2013-07-18 13:02:00,90.0,73.0,-100.00,North,0,2.0,6.0,57,0.00,,,-99.99,,2013-07-18 17:02:00,
2013-07-18 13:43:00,92.0,73.0,-100.00,West,265,2.0,6.0,53,0.00,,,-99.99,,2013-07-18 17:43:00,
2013-07-18 14:01:00,91.0,71.0,-100.00,NW,310,2.0,5.0,52,0.00,,,-99.99,,2013-07-18 18:01:00,
2013-07-18 14:11:00,90.0,71.0,-100.00,NNW,335,1.0,5.0,53,0.00,,,-99.99,,2013-07-18 18:11:00,
2013-07-18 14:22:00,91.0,73.0,-100.00,NNW,335,2.0,5.0,56,0.00,,,-99.99,,2013-07-18 18:22:00,
2013-07-18 14:32:00,92.0,73.0,-100.00,NNW,340,1.0,4.0,53,0.00,,,-99.99,,2013-07-18 18:32:00,
2013-07-18 14:43:00,94.0,72.0,-100.00,North,0,1.0,7.0,48,0.00,,,-99.99,,2013-07-18 18:43:00,
2013-07-18 15:11:00,93.0,72.0,-100.00,North,0,2.0,6.0,50,0.00,,,-99.99,,2013-07-18 19:11:00,
2013-07-18 15:22:00,92.0,70.0,-100.00,North,0,2.0,6.0,49,0.00,,,-99.99,,2013-07-18 19:22:00,
2013-07-18 15:32:00,93.0,70.0,-100.00,North,350,3.0,7.0,47,0.00,,,-99.99,,2013-07-18 19:32:00,
2013-07-18 15:43:00,94.0,71.0,-100.00,North,0,6.0,8.0,47,0.00,,,-99.99,,2013-07-18 19:43:00,
2013-07-18 17:01:00,95.0,68.0,-100.00,ENE,60,2.0,9.0,41,-99.99,,,-99.99,,2013-07-18 21:01:00,
2013-07-18 17:11:00,94.0,69.0,-100.00,North,0,2.0,7.0,45,-99.99,,,-99.99,,2013-07-18 21:11:00,
2013-07-18 17:22:00,95.0,69.0,-100.00,NE,45,3.0,7.0,42,-99.99,,,-99.99,,2013-07-18 21:22:00,
2013-07-18 17:32:00,94.0,71.0,-100.00,North,0,6.0,7.0,46,-99.99,,,-99.99,,2013-07-18 21:32:00,
2013-07-18 17:43:00,94.0,70.0,-100.00,North,0,4.0,9.0,44,-99.99,,,-99.99,,2013-07-18 21:43:00,
2013-07-18 17:52:00,94.0,68.0,-100.00,North,0,5.0,9.0,42,-99.99,,,-99.99,,2013-07-18 21:52:00,
2013-07-18 18:01:00,94.0,68.0,-100.00,North,0,5.0,9.0,42,-99.99,,,-99.99,,2013-07-18 22:01:00,
2013-07-18 18:22:00,94.0,69.0,-100.00,North,0,4.0,7.0,44,-99.99,,,-99.99,,2013-07-18 22:22:00,
2013-07-18 18:32:00,94.0,68.0,-100.00,North,0,4.0,6.0,43,-99.99,,,-99.99,,2013-07-18 22:32:00,
2013-07-18 18:43:00,94.0,68.0,-100.00,North,355,1.0,3.0,42,-99.99,,,-99.99,,2013-07-18 22:43:00,
2013-07-18 19:02:00,94.0,70.0,-100.00,NNW,340,3.0,5.0,46,-99.99,,,-99.99,,2013-07-18 23:02:00,
2013-07-18 19:22:00,93.0,71.0,-100.00,NNW,340,3.0,6.0,49,0.00,,,-99.99,,2013-07-18 23:22:00,
2013-07-18 19:32:00,94.0,72.0,-100.00,North,0,1.0,6.0,48,0.00,,,-99.99,,2013-07-18 23:32:00,
2013-07-18 19:42:00,92.0,71.0,-100.00,North,0,3.0,6.0,50,0.00,,,-99.99,,2013-07-18 23:42:00,
2013-07-18 19:52:00,92.0,71.0,-100.00,North,0,2.0,5.0,50,0.00,,,-99.99,,2013-07-18 23:52:00,
2013-07-18 20:01:00,91.0,73.0,-100.00,NNW,330,2.0,4.0,55,0.00,,,-99.99,,2013-07-19 00:01:00,
2013-07-18 20:11:00,90.0,73.0,-100.00,NNW,335,1.0,4.0,57,0.00,,,-99.99,,2013-07-19 00:11:00,
2013-07-18 20:22:00,89.0,72.0,-100.00,NNW,335,1.0,4.0,57,0.00,,,-99.99,,2013-07-19 00:22:00,
2013-07-18 20:32:00,89.0,75.0,-100.00,NNW,330,1.0,3.0,63,0.00,,,-99.99,,2013-07-19 00:32:00,
2013-07-18 20:43:00,87.0,75.0,-100.00,SW,220,1.0,3.0,67,0.00,,,-99.99,,2013-07-19 00:43:00,
2013-07-18 21:01:00,86.0,75.0,-100.00,NW,310,1.0,2.0,71,0.00,,,-99.99,,2013-07-19 01:01:00,
2013-07-18 21:11:00,85.0,75.0,-100.00,NW,325,0.0,3.0,72,0.00,,,-99.99,,2013-07-19 01:11:00,
2013-07-18 22:42:00,81.0,74.0,-100.00,West,265,2.0,5.0,80,0.00,,,-99.99,,2013-07-19 02:42:00,